Tracking 27107 objects as of 20-Mar-2023
HD Live streaming from Space Station
objects crossing your sky now

CRRES DEB (CANISTER)

Track CRRES DEB (CANISTER) now!


NORAD ID: 21588
Int'l Code: 1990-065D
Perigee: 390.2 km
Apogee: 32,355.7 km
Inclination: 18.6 °
Period: 568.9 minutes
Semi major axis: 22743 km
RCS: 0.1213 m2 (medium)
Launch date: July 25, 1990
Source: United States (US)
Launch site: AIR FORCE EASTERN TEST RANGE (AFETR)

Note: This is SATELLITE DEBRIS
Your satellite tracking list
Your tracking list is empty




NASA's NSSDC Master Catalog

Two Line Element Set (TLE):
1 21588U 90065D   23071.87083924  .00000316  00000-0  67621-3 0  9993
2 21588  18.6124 335.7762 7027267 242.9702  31.0581  2.53107424 95907
Source of the keplerian elements: AFSPC